Regional Weather Roundup
Issued by NWS

Home | Current Version | Previous Version | Text Only | Print | Product List | Glossary Off
Versions: 1 2 3 4 5 6 7 8 9 10 11 12 13 14 15 16 17 18 19 20 21 22 23 24 25 26 27 28 29 30 31 32 33 34 35 36 37 38 39 40 41 42 43 44 45 46 47 48 49 50

000
ASUS43 KTOP 232308
RWRKS

WEATHER ROUNDUP FOR KANSAS
NATIONAL WEATHER SERVICE GOODLAND KS
600 PM CDT THU OCT 23 2014

NOTE:  "FAIR" INDICATES FEW OR NO CLOUDS BELOW 12,000 FEET WITH NO
SIGNIFICANT WEATHER AND/OR OBSTRUCTIONS TO VISIBILITY.

KSZ001>006-013>018-027>032-041>047-240000-
NORTHWEST KANSAS

CITY           SKY/WX    TMP DP  RH WIND       PRES   REMARKS
GOODLAND       PTCLDY    70  53  54 S13       30.05F
HAYS           PTCLDY    72  57  60 S7        30.03S
HILL CITY      MOCLDY    71  56  58 S8        30.03S
RUSSELL        MOCLDY    70  57  63 S7        30.01F
$$

KSZ061>065-074>080-084>089-240000-
SOUTHWEST KANSAS

CITY           SKY/WX    TMP DP  RH WIND       PRES   REMARKS
DODGE CITY     CLEAR     71  57  61 E7        30.05S
ELKHART          N/A    N/A N/A N/A MISG        N/A
GARDEN CITY    CLEAR     71  55  56 SE6       30.05S
GREAT BEND     PTCLDY    72  57  60 S6        30.03S
LIBERAL        CLEAR     77  57  50 SE3       30.06R
PRATT          PTCLDY    70  55  60 S6        30.05S
$$

KSZ066>073-081>083-090>101-240000-
SOUTHEAST KANSAS

CITY           SKY/WX    TMP DP  RH WIND       PRES   REMARKS
CHANUTE        CLOUDY    64  59  83 S9        30.07S
COFFEYVILLE    LGT RAIN  63  57  81 S8        30.07S
HUTCHINSON     MOCLDY    71  59  65 S7        30.03S
MEDICINE LODGE   N/A     73  60  63 SE6       30.03R
NEWTON         MOCLDY    70  57  64 S6        30.06S
PARSONS        PTCLDY    64  58  80 S6        30.08F
WICHITA INTL   CLOUDY    73  60  63 SE7       30.03S
WICHITA JABRA  MOCLDY    70  60  70 S6        30.03F
WICHITA MCCONL MOCLDY    71  62  74 SE6       30.04S
WINFIELD       MOCLDY    72  61  68 SE5       30.05S
$$

KSZ007>012-019>026-033>040-048>060-102>105-240000-
NORTHEAST KANSAS

CITY           SKY/WX    TMP DP  RH WIND       PRES   REMARKS
CONCORDIA      PTCLDY    68  57  68 S3        30.01F
EMPORIA        PTCLDY    66  60  81 E5        30.04S
LAWRENCE       CLEAR     65  60  84 S5        30.04S
MANHATTAN      CLEAR     70  56  61 CALM      30.01S
MARYSVILLE     CLEAR     70  54  56 SW5       30.01R
OLATHE IND     MOCLDY    63  59  87 S6        30.06S
OLATHE EXE     CLOUDY    64  61  90 S5        30.05S
SALINA         PTCLDY    70  60  70 S6        30.01F
TOPEKA BILLARD CLEAR     68  62  81 SE6       30.03S
TOPEKA FORBES  CLEAR     67  61  81 SE7       30.03S
$$



USA.gov is the U.S. government's official web portal to all federal, state and local government web resources and services.